Aérodrome :
LOGIN :

S'inscrire | Disclaimer

   EN    FR    IT 

 










Légende :    VFR   VFR Marginal   IFR   IFR Intensif   IFR Très Intensif
Visi : 
Plafond : 
>= 8 km
>= 3000ft
5 à 8 km
1000 à 3000 ft
1500m à 5 km
500 à 1000 ft
800 à 1500m
200 à 500 ft
< 800m
< 200 ft
Symboles :   Orages  Brouillard  Fortes neiges  Fortes précipitations  Vent > 20 kt
SIGMETs :   Divers  Orages  Givrage  Turbulence  Onde Orograph.  Cendres Volcan.







- Altitude de l'aérodrome : 636 ft


LPBJ - Beja Air Base

DERNIER METAR :
  • 140800Z 21007KT 3000 BR SCT008 BKN014 BKN022 10/10 Q1026

METARs EXPIRÉS :
  • 140745Z 21006KT 1200 BR SCT007 BKN014 10/10 Q1026
  • 140700Z 20006KT 9999 SCT007 BKN014 10/09 Q1026
  • 140600Z 22004KT 9999 SCT007 BKN016 10/08 Q1026

TAF TAF LPBJ
Valide du 14 à 06h jusqu'au 15 à 06h UTC


140500Z 1406/1506 VRB02KT 9999 SCT016 BKN035
PROB40
TEMPO 1406/1418 BKN014
BECMG 1411/1413 29008KT
PROB40 1421/1506 0400 FG BKN002
Pas de NOTAMs connus pour ce terrain.



MET'MAP, la Météo Aéronautique d'un coup d'oeil ! - Copyright ORBIFLY Décembre 2007 - Disclaimer

ORBIFLY MET'MAP TEAM :

Programmation & Développement : Alexandra Zaïnal
Conception & Développement : Baudouin d'Aumeries
Co-Programmation & Développement : Marc-Olivier Méhu
Soutien technique & logistique : Manuel Goepfert

Contact : metmap@orbifly.com




SOURCES & CREDITS :

   NOAA